Tracking 17150 objects as of 4-August-2015
HD Live streaming from Space Station

COSMOS 2251 DEB

Track COSMOS 2251 DEB now!
10-day predictions
COSMOS 2251 DEB is classified as:


NORAD ID: 33899
Int'l Code: 1993-036DC
Perigee: 693.8 km
Apogee: 805.7 km
Inclination: 74.1 °
Period: 99.7 minutes
Semi major axis: 7120 km
RCS: 0.032 m2 (small)
Launch date: June 16, 1993
Source: Commonwealth of Independent States (former USSR) (CIS)

Note: This is SATELLITE DEBRIS
Your satellite tracking list
Your tracking list is empty





NASA's NSSDC Master Catalog

Two Line Element Set (TLE):
1 33899U 93036DC  15214.48327255  .00000905  00000-0  25871-3 0  9992
2 33899 074.0612 329.1616 0078573 275.9526 204.3618 14.44825809340341

Source of the keplerian elements: AFSPC

N2YO: 333